Location: *
(6.0000°S, 32.3997°W)
Time: 21:57:12
(UTC+00:00)

USA 229 DEB - Pass Details

Date: 01 April 2020
Orbit: 983 x 1229 km, 63.4° (Epoch: 30 May)

Event Time Altitude Azimuth Distance (km) Brightness Sun altitude
Rises 21:42:33 0° 333° (NNW) 4,117 7.2 -22.7°
Reaches altitude 10° 21:45:17 10° 332° (NNW) 3,167 6.5 -23.4°
Maximum altitude 21:52:58 76° 247° (WSW) 1,263 4.1 -25.3°
Enters shadow 22:00:23 11° 162° (SSE) 3,073 5.9 -27.1°
